Temp
15 15 15 14 14 13 14 13 13 13 13 13 12 11 11 12 12 12 12 12 11 11 11 11 11 10 10 10 9 8 8 8
16 15 15 14 13 13 13 13 13 13 13 13 12 12 12 12 12 12 11 11 11 11 11 10 10 10 10 9 9 8 8 8
15 15 15 14 14 13 13 13 13 13 13 13 13 12 12 12 11 11 11 11 11 11 10 10 10 10 9 9 9 8 7 6
16 16 16 15 15 15 15 14 14 13 13 13 12 12 12 11 11 11 10 11 10 9 9 9 9 9 9 9 8 7 6 5
16 16 16 16 16 16 16 15 15 14 13 13 12 13 12 12 12 11 10 9 9 9 9 9 9 7 7 7 6 6 5 4
16 16 16 16 15 15 15 15 14 14 13 12 13 11 11 12 11 10 9 9 9 9 9 8 6 7 7 6 5 4 4 3
17 17 16 16 15 15 15 14 15 13 13 14 12 10 11 12 11 9 9 9 9 8 8 7 6 5 5 5 4 4 2 1
16 16 16 16 16 16 15 15 13 12 12 11 11 11 11 11 11 10 9 9 8 7 7 6 5 5 5 4 3 2 2 1
17 17 16 15 16 16 14 15 15 13 12 11 11 11 10 10 10 9 8 8 7 6 5 5 4 4 4 3 2 2 1 0
17 17 16 16 16 16 17 15 14 13 13 12 12 11 11 11 8 8 8 7 5 5 5 4 4 4 3 2 2 1 0 -0
17 16 16 16 17 16 16 15 14 13 12 12 12 12 11 10 9 9 8 7 6 5 4 2 3 3 2 2 1 1 -0 -1
18 18 17 17 17 16 15 14 13 13 12 12 12 11 10 9 8 8 8 7 6 5 4 3 3 2 2 1 1 0 -1 -1
19 18 17 17 17 16 15 14 13 13 12 11 10 10 9 9 8 8 7 6 5 4 3 3 2 2 2 1 1 -0 -1 -1
16 16 17 16 16 15 15 13 12 12 11 11 10 9 9 9 8 8 8 6 4 3 3 2 2 2 1 1 0 -0 -1 -1
17 16 16 16 15 14 13 12 12 11 11 11 10 10 10 9 8 7 6 4 3 3 1 1 0 1 1 0 -0 -1 -1 -2
16 15 16 16 14 13 12 12 11 11 11 11 10 10 9 8 7 5 4 3 2 1 -0 -1 -1 0 0 -0 -1 -1 -2 -2
15 16 15 15 14 13 12 12 11 11 11 10 9 7 6 5 4 4 2 1 0 -1 -1 0 -1 0 -0 -1 -1 -2 -2 -3
16 15 15 15 14 13 13 12 11 10 9 8 7 6 6 4 3 2 0 -1 -1 -0 -0 -1 -1 -1 -1 -1 -2 -2 -3 -3
14 14 14 14 13 12 12 11 9 8 7 6 6 5 4 1 0 -1 -1 -1 0 -0 -1 -1 -1 -1 -2 -2 -2 -2 -3 -3
Height
1520 1523 1526 1529 1532 1536 1538 1540 1544 1548 1550 1553 1555 1556 1558 1560 1561 1561 1560 1559 1560 1561 1562 1566 1567 1565 1564 1565 1563 1559 1557 1555
1518 1521 1525 1528 1530 1533 1535 1537 1541 1544 1546 1549 1552 1553 1556 1557 1557 1557 1557 1557 1558 1560 1563 1565 1564 1562 1562 1560 1558 1557 1554 1552
1515 1518 1523 1524 1527 1529 1532 1535 1538 1540 1544 1546 1549 1551 1553 1554 1553 1554 1556 1556 1556 1559 1561 1563 1561 1559 1557 1555 1554 1553 1551 1550
1511 1514 1516 1521 1523 1523 1527 1530 1535 1538 1542 1545 1547 1547 1550 1550 1551 1552 1554 1555 1556 1558 1560 1559 1557 1555 1554 1553 1552 1551 1549 1549
1508 1509 1511 1514 1516 1522 1527 1530 1533 1536 1539 1540 1542 1543 1544 1546 1549 1551 1552 1553 1555 1557 1557 1556 1553 1552 1552 1552 1551 1550 1548 1547
1502 1506 1509 1511 1517 1520 1523 1527 1530 1532 1534 1536 1537 1538 1542 1545 1546 1548 1549 1550 1551 1552 1552 1551 1551 1551 1550 1551 1550 1549 1547 1545
1499 1502 1508 1510 1514 1516 1519 1522 1524 1528 1531 1531 1532 1534 1538 1541 1543 1545 1546 1548 1549 1548 1548 1547 1547 1547 1550 1549 1547 1545 1544 1542
1494 1497 1501 1506 1508 1512 1515 1517 1520 1522 1526 1527 1529 1532 1536 1538 1540 1542 1543 1543 1544 1545 1543 1544 1544 1546 1547 1545 1544 1542 1539 1539
1488 1490 1495 1500 1505 1509 1510 1513 1516 1519 1521 1523 1526 1529 1532 1534 1536 1537 1538 1540 1540 1539 1541 1541 1543 1543 1542 1541 1539 1537 1536 1534
1483 1487 1493 1498 1502 1505 1509 1510 1513 1515 1517 1519 1522 1525 1527 1529 1532 1535 1536 1536 1535 1538 1538 1539 1541 1540 1538 1537 1535 1533 1531 1531
1480 1485 1490 1495 1500 1502 1505 1507 1509 1510 1512 1515 1517 1519 1522 1524 1526 1527 1529 1530 1532 1533 1533 1534 1535 1535 1533 1532 1531 1528 1527 1525
1479 1483 1487 1492 1496 1498 1500 1502 1503 1506 1508 1510 1512 1515 1518 1522 1524 1525 1526 1525 1526 1527 1528 1529 1530 1530 1529 1528 1527 1524 1523 1522
1477 1480 1483 1487 1491 1493 1494 1496 1499 1501 1503 1506 1510 1513 1516 1519 1520 1520 1522 1522 1523 1525 1526 1526 1527 1526 1525 1523 1522 1519 1517 1515
1477 1479 1482 1484 1486 1488 1492 1495 1496 1498 1501 1505 1507 1510 1512 1513 1515 1516 1517 1517 1518 1519 1521 1522 1522 1522 1522 1519 1517 1515 1512 1511
1475 1477 1479 1482 1484 1486 1488 1491 1493 1495 1499 1502 1504 1506 1507 1508 1510 1511 1512 1514 1515 1516 1517 1517 1518 1517 1515 1513 1512 1510 1508 1506
1473 1476 1479 1480 1482 1483 1485 1487 1490 1494 1496 1498 1500 1501 1503 1505 1507 1507 1510 1512 1512 1512 1512 1512 1512 1511 1509 1507 1507 1504 1502 1501
1472 1475 1476 1478 1480 1481 1482 1484 1487 1489 1492 1495 1497 1501 1503 1505 1505 1504 1505 1505 1506 1507 1509 1507 1505 1504 1503 1502 1500 1499 1497 1496
1474 1475 1477 1478 1479 1480 1480 1482 1485 1486 1489 1490 1493 1496 1497 1497 1499 1500 1500 1500 1502 1503 1503 1502 1501 1500 1498 1496 1495 1493 1492 1491
1476 1477 1477 1477 1477 1478 1478 1480 1481 1483 1485 1487 1489 1491 1493 1495 1494 1494 1497 1497 1498 1497 1497 1497 1496 1494 1492 1491 1489 1487 1486 1485
Wind_Speed
34 34 33 30 29 30 27 28 28 27 24 26 24 23 22 21 18 14 12 13 15 14 11 11 9 7 10 15 18 18 19 20
31 33 33 34 34 34 31 31 31 30 30 31 29 28 24 19 14 9 10 11 11 12 12 10 8 10 15 17 19 20 22 21
35 34 35 34 36 37 36 34 31 32 32 31 31 28 25 17 11 12 13 13 12 11 11 10 11 14 17 22 24 24 23 22
41 38 38 35 37 34 36 37 35 35 34 33 31 29 23 20 17 17 15 13 13 12 12 12 13 16 19 24 25 24 22 21
44 45 44 43 41 37 37 39 35 35 35 35 34 34 32 27 20 19 16 17 15 13 14 14 15 16 21 24 23 22 21 18
46 48 46 44 44 39 39 39 38 35 37 36 34 34 31 25 22 21 20 19 16 16 15 14 14 18 22 21 20 20 17 14
45 44 44 44 45 42 39 40 30 33 34 32 35 33 29 27 26 25 23 20 19 18 17 15 14 18 20 22 20 17 16 14
45 46 48 45 45 42 41 32 33 31 29 32 29 32 29 28 27 28 27 25 22 20 16 15 21 17 22 19 17 16 15 15
45 46 45 44 41 39 39 28 27 25 30 30 27 29 31 31 31 32 29 26 21 16 13 21 16 15 15 15 16 15 15 14
42 43 42 39 35 33 25 25 27 25 29 27 28 30 30 29 31 30 28 22 18 18 20 8 12 15 14 16 15 15 14 13
31 36 37 37 31 29 23 26 25 25 30 26 27 29 28 29 31 32 29 27 23 22 9 11 12 12 14 16 15 15 15 17
24 27 33 34 30 29 24 26 27 29 30 27 30 29 29 30 30 29 28 24 21 17 17 11 10 13 15 18 17 16 16 18
21 28 35 36 34 32 30 27 30 33 32 30 26 25 27 28 30 28 24 22 18 17 13 10 10 13 17 20 17 17 18 18
28 32 35 36 36 35 32 34 37 35 33 28 25 27 27 29 28 25 25 23 19 15 15 7 10 15 19 20 20 17 19 18
30 31 34 34 35 35 35 38 39 36 29 27 27 28 29 29 27 25 23 17 16 15 9 7 11 20 21 19 18 19 18 18
29 31 31 34 37 38 39 40 38 33 30 30 29 31 30 26 25 21 17 19 15 10 9 8 18 22 21 18 20 18 18 18
10 19 27 34 37 38 38 36 34 34 31 30 31 29 24 21 20 24 20 19 13 10 14 23 17 22 17 19 18 18 18 18
6 2 3 9 19 26 30 32 31 31 33 31 31 27 25 25 24 22 18 11 5 16 24 15 21 21 21 20 18 19 19 20
6 4 1 2 6 12 19 24 26 28 28 28 27 27 24 21 20 16 7 9 21 26 13 19 23 22 18 17 19 19 20 21
Wind_Direction
196 199 201 201 201 201 198 197 199 204 209 211 209 208 209 213 223 235 232 229 227 232 229 232 250 279 301 302 308 314 320 322
196 201 202 202 200 203 203 201 203 205 207 208 211 215 214 218 239 237 209 212 212 214 227 245 268 295 297 314 320 317 316 317
204 203 206 204 202 204 207 209 211 210 215 217 221 224 226 235 226 224 215 216 217 228 242 260 284 297 321 320 314 313 317 321
204 205 206 206 205 205 210 215 217 219 219 222 225 223 226 225 223 231 214 218 225 232 247 267 289 306 312 311 310 313 314 314
210 207 206 209 210 209 210 214 219 222 219 223 226 226 227 234 248 228 215 220 227 241 255 271 288 306 312 312 310 309 308 307
210 213 213 211 213 213 214 216 217 219 220 224 229 231 234 237 239 220 222 227 236 252 262 278 295 309 307 304 308 306 305 305
213 216 216 216 217 216 219 219 230 221 221 229 236 232 232 236 229 220 227 237 246 247 253 264 289 306 311 311 304 305 307 309
211 213 216 218 220 219 222 231 232 224 228 230 237 232 234 238 233 229 231 233 237 240 249 278 301 308 301 301 304 303 301 300
213 213 215 217 216 217 225 229 234 225 231 230 225 226 231 238 236 229 231 235 232 234 269 291 307 296 297 305 307 303 302 298
215 216 215 212 211 221 240 232 227 227 226 224 229 230 239 238 232 226 231 223 235 266 287 299 310 309 313 317 309 306 304 308
214 216 216 213 220 229 240 235 233 224 221 230 231 233 233 229 230 224 225 241 255 274 245 273 290 314 320 324 313 315 309 308
207 215 218 216 225 231 238 229 224 226 227 234 228 223 222 221 223 228 238 250 255 243 277 266 293 322 320 321 316 321 312 313
212 213 211 216 222 231 233 230 228 230 225 225 224 234 222 224 230 237 244 252 248 274 258 268 306 314 315 313 310 319 324 319
213 214 217 220 223 226 228 224 224 225 226 233 239 224 232 239 239 243 252 250 254 264 250 276 308 309 307 304 311 307 317 313
225 224 224 225 225 225 227 224 227 227 229 238 241 242 247 246 244 246 244 242 252 242 237 279 295 299 296 298 294 301 307 301
233 234 235 235 231 232 231 231 231 231 234 238 249 245 243 238 239 234 231 234 214 216 226 276 296 291 291 288 291 295 294 295
241 252 253 252 251 247 246 246 242 237 238 239 238 233 229 230 225 222 208 187 191 204 306 291 289 283 283 283 288 291 287 290
109 123 255 268 271 266 261 253 246 235 229 229 228 225 224 221 222 200 189 191 309 310 293 293 284 286 285 287 286 285 275 292
90 91 108 235 253 255 250 247 240 228 224 225 222 221 213 188 183 180 216 311 282 284 285 287 290 290 288 283 284 276 274 289